Tsnori

Georgia     41˚37′05″N   45˚58′45″E
temp.,
°C
wind,
m/s
gust,
m/s
humid.,
%
clouds,
%
prec.,
mm/h
press.,
hPa
HPBL,
m
2 december, wed
wed201:00+3˚w118336 0.0 102622
04:00+2˚w118429 0.0 102622
07:00+2˚wnw12830 0.0 102622
10:00+5˚w11700 0.0 102643
13:00+9˚e11580 0.0 1025540
16:00+9˚ese11590 0.0 1024464
19:00+5˚sse12780 0.0 102622
22:00+4˚se11830 0.0 102822
3 december, thu
thu301:00+3˚e01861 0.0 102822
04:00+2˚nnw11876 0.0 102922
07:00+2˚w01880 0.0 102922
10:00+5˚e00770 0.0 1029104
13:00+7˚e126710 0.0 1028749
16:00+7˚ese116851 0.0 1027563
19:00+6˚sse1175100 0.0 102926
22:00+6˚se1178100 0.0 102931
4 december, fri
fri401:00+5˚ne0179100 0.0 102922
04:00+5˚nne1182100 0.0 102827
07:00+4˚nw118496 0.0 102823
10:00+6˚nnw007694 0.0 1028210
13:00+7˚ene117197 0.0 1026611
16:00+7˚ese116989 0.1 1026653
19:00+6˚s128687 0.1 102788
22:00+5˚se018693 0.3 102743
5 december, sat
sat501:00+5˚ne1183100 0.1 102735
04:00+5˚nnw118397 0.1 102627
07:00+5˚ne008187 0.0 102622
10:00+6˚ene117588 0.0 1026198
13:00+8˚ne116056 0.0 1025872
16:00+8˚ene115755 0.0 1024965
19:00+6˚ese116664 0.0 102623
22:00+5˚e017069 0.0 102622
6 december, sun
sun601:00+5˚n116896 0.0 102730
04:00+5˚ene117198 0.0 102770
07:00+4˚ne1179100 0.0 102739
10:00+4˚ne128899 0.7 1027227
13:00+4˚ene1295100 1.3 1026190
16:00+4˚ese1295100 2.1 1026208
19:00+4˚se2393100 0.3 1027275
22:00+3˚se2493100 0.4 1028299